www.pogodaiklimat.ru

Погода и климат >> Архив погоды >> Россия >> Мордовия >> Торбеево


ПОГОДА в Торбеево

  • Прогноз погоды в Торбеево
  • Монитор погоды в Торбеево

АРХИВ ПОГОДЫ в Торбеево

Время (UTC), дата Ветер
(напр.,м/с)
 
Видим.   Явления Облачность Т
(С)
Тd
(С)
f
(%)
Тe
(С)
Тes
(С)
Комфортность P
(гПа)
Po
(гПа)
Тmin
(С)
Tmax
(С)
R
(мм)
R24
(мм)
S
(см)
06 16.08 СЗ 6-10
{11}
10 км гроза, ливневой дождь 10/10 600 м
[Cb cap]
+18.6 +17.1 91 +19 +19 1012.9 989.9
09 16.08 СВ 4-7
{11}
20 км {гроза, ливн. осадки} 10/6 600 м
[Cb cap Ac trans]
+20.2 +17.3 83 +23 +25 комфорт 1013.1 990.1
12 16.08 СВ 3-6
{9}
20 км {гроза, ливн. осадки} 10/3 600 м
[Cb cap Ac trans]
+22.2 +15.0 64 +26 +28 душно 1012.4 989.6
15 16.08 СВ 6-11
{11}
20 км ливневой дождь {гроза} 10/10 600 м
[Cb cap]
+18.7 +17.4 92 +19 +19 1012.2 989.2 +24.3 20
18 16.08 СВ 5-9
{12}
20 км {гроза} 10/8 600 м
[Cb cap Ac trans]
+18.8 +17.2 90 +20 +20 1011.4 988.4
21 16.08 В 3-5
{9}
20 км 10/5 600 м
[Cb cap Ac trans]
+18.5 +17.0 91 +19 +19 1011.3 988.3
00 17.08 СВ 3-6
{6}
20 км 10/10 600 м
[Cb cap]
+18.0 +17.5 97 +18 +18 1011.6 988.5
03 17.08 В 4-8
{10}
20 км {ливн. осадки} 10/8 600 м
[Cb cap Ac trans]
+19.0 +17.4 90 +20 +20 1011.6 988.6 +17.9 3
06 17.08 В 4-6
{8}
20 км {ливн. осадки} 10/5 600 м
[Cb cap Ac trans]
+20.2 +18.3 89 +24 +25 комфорт 1011.7 988.7
09 17.08 В 3-5
{9}
20 км 10/6 600 м
[Cb cap Ac trans]
+21.5 +17.3 77 +26 +27 душно 1011.7 988.9
12 17.08 СВ 2-4
{5}
10 км слаб. ливневой дождь 10/8 600 м
[Cb cap Ac trans]
+20.8 +18.7 88 +26 +26 душно 1012.5 989.6
15 17.08 СВ 4-7
{7}
20 км {ливн. осадки} 10/5 600 м
[Sc Ac trans]
+21.0 +19.5 91 +26 +26 душно 1011.7 988.9 +23.4 2
18 17.08 В 3-5
{5}
20 км {ливн. осадки} 10/10 600 м
[Cb cap]
+20.0 +18.6 92 +23 +23 комфорт 1011.5 988.5
21 17.08 СВ 3-7
{7}
20 км {ливн. осадки} 10/10 600 м
[Cb cap]
+19.6 +16.9 84 +22 +22 комфорт 1009.4 986.6
00 18.08 В 3-6
{7}
20 км {ливн. осадки} 10/5 600 м
[Cb cap Ac trans]
+19.5 +16.2 81 +22 +22 комфорт 1008.8 986.0
03 18.08 ЮВ 2-4
{6}
20 км 3/0
[Ci fib]
+17.5 +14.4 82 +18 +18 1009.1 986.1 +17.5 0.0
06 18.08 Ю 3-5
{5}
20 км 4/0
[Ci fib]
+22.6 +15.4 64 1009.9 987.3
09 18.08 Ю 5-8
{9}
20 км 8/4 600 м
[Cu hum Ci fib]
+25.3 +17.5 62 +29 +33 душно 1010.5 988.0
12 18.08 Ю 4-7
{9}
20 км 9/4 600 м
[Cu hum Ci fib]
+27.4 +18.0 57 +32 +35 очень
душно
1011.4 989.0
15 18.08 ЮЗ 2-3
{7}
20 км 9/6 600 м
[Cb cap Ci fib]
+26.4 +18.4 61 +31 +31 душно 1011.8 989.4 +28.2
18 18.08 С 1-2
{3}
20 км 10/8 600 м
[Cb cap Ac trans]
+21.8 +17.7 78 +26 +26 душно 1013.0 990.2
21 18.08 Ю 4-6
{8}
20 км в посл. час ливневой дождь 10/10 600 м
[Cb cap]
+19.6 +18.0 90 +22 +22 комфорт 1014.3 991.3
00 19.08 ЮВ 3-5
{6}
20 км 10/10 600 м
[Cb cap]
+18.8 +17.4 92 +20 +20 1014.0 991.0
03 19.08 Ю 2-3
{5}
20 км 10/6 600 м
[Cb cap Ac trans]
+18.0 +17.0 94 +19 +19 1015.3 992.2 +17.6 4
06 19.08 СЗ 2-3
{4}
20 км 10/3 600 м
[Sc Ac trans Ci fib]
+20.8 +15.9 74 +25 +27 комфорт 1016.2 993.2
09 19.08 ЮЗ 2-4
{4}
20 км 10/5 600 м
[Sc Ac trans]
+21.6 +15.4 68 +25 +27 комфорт 1017.1 994.2
12 19.08 ЮЗ 2-4
{4}
20 км {ливн. осадки} 10/3 600 м
[Sc Ac trans Ci fib]
+23.4 +17.3 69 +29 +31 душно 1017.1 994.3
15 19.08 ЮЗ 2-4
{5}
20 км 8/4 600 м
[Sc Ci fib]
+23.4 +15.9 63 +28 +28 душно 1018.0 995.2 +24.4 0.0
18 19.08 СЗ 2-3
{4}
20 км 4/4 600 м
[Sc]
+19.0 +15.6 81 1019.4 996.2
21 19.08 СЗ 1-2
{3}
20 км ясно +15.7 +14.9 95 +11 +11 1020.2 996.8
00 20.08 штиль 0
{2}
4000 м дымка ясно +13.0 +12.6 97 +12 +12 1021.0 997.4
03 20.08 штиль 0
{2}
4000 м дымка ясно +12.7 +12.5 99 +12 +13 1022.1 998.3 +12.3
06 20.08 СЗ 2-3
{3}
20 км 10/10 600 м
[Sc]
+19.2 +16.5 84 +21 +21 комфорт 1021.7 998.7
09 20.08 З 3-6
{6}
20 км 8/5 600 м
[Cu med, cong Ac trans]
+22.6 +13.9 58 +26 +29 жарко 1021.8 998.8
12 20.08 СЗ 3-5
{6}
20 км 8/5 600 м
[Cb cap Ac trans Ci fib]
+23.9 +13.4 52 +26 +28 жарко 1021.3 998.4
15 20.08 СЗ 2-3
{3}
20 км 6/6 600 м
[Cb cap]
+23.3 +14.3 57 +27 +27 душно 1021.4 998.4 +24.9
18 20.08 СЗ 1-1
{4}
20 км 1/0
[Ac trans]
+17.2 +15.9 92 +18 +18 1022.2 998.8
21 20.08 СЗ 1-2
{2}
20 км ясно +16.7 +15.1 90 +18 +18 1022.9 999.4
00 21.08 С 1-1
{2}
4000 м дымка ясно +14.4 +14.2 99 +15 +15 1023.0 999.3
03 21.08 С 1-1
{2}
4000 м дымка ясно +14.8 +14.6 99 +15 +16 1024.0 1000.4 +14.0
06 21.08 С 2-3
{4}
20 км ясно +22.1 +15.4 66 +26 +33 душно 1023.8 1000.8
09 21.08 С 2-5
{5}
20 км 10/1 1000 м
[Cu hum Ci fib]
+25.8 +14.7 50 +28 +37 жарко 1022.9 1000.2
12 21.08 С 3-6
{7}
20 км 8/5 600 м
[Cu med, cong Ac trans Ci fib]
+27.6 +14.7 45 +30 +32 жарко 1022.6 1000.0
15 21.08 С 2-4
{6}
20 км 6/3 600 м
[Cu med, cong Ac trans Ci fib]
+27.0 +15.0 48 +30 +30 душно 1022.3 999.6 +27.8
18 21.08 СВ 1-2
{4}
20 км ясно +21.4 +15.9 71 +25 +25 комфорт 1022.8 999.7
21 21.08 В 1-1
{2}
20 км ясно +16.8 +11.4 70 +18 +18 1023.4 999.9
00 22.08 СВ 1-1
{2}
20 км ясно +16.3 +16.1 99 +17 +17 1023.2 999.7
03 22.08 СВ 1-1
{1}
20 км ясно +16.1 +15.9 99 +17 +17 1023.2 999.7 +15.1
06 22.08 Ю 1-2
{3}
20 км ясно +24.6 +16.7 61 +28 +28 душно 1022.2 999.4
09 22.08 ЮЗ 1-2
{5}
20 км 6/6 600 м
[Cu hum]
+28.0 +15.1 45 +31 +36 душно 1021.3 998.7
12 22.08 ЮВ 1-4
{5}
20 км 4/4 600 м
[Cu hum]
+29.8 +15.6 42 +33 +38 душно 1020.0 997.6
15 22.08 Ю 1-1
{5}
20 км 3/3 600 м
[Cu hum]
+28.9 +14.4 41 +31 +31 жарко 1019.2 996.8 +30.3
18 22.08 З 1-2
{2}
20 км ясно +20.6 +15.2 71 +25 +25 комфорт 1019.7 996.6
21 22.08 З 1-2
{2}
20 км ясно +18.0 +16.2 89 +19 +19 1020.2 997.0
00 23.08 С 4-8
{9}
20 км 6/0
[Ac trans]
+17.4 +15.7 90 +17 +17 1022.2 998.8
03 23.08 С 4-8
{10}
20 км 8/0
[Ac trans Ci fib]
+15.6 +13.1 85 +15 +15 1024.1 1000.5 +15.4

 

Местоположение метеостанции Торбеево (Мордовия, Россия): широта 54.08 долгота 43.25 высота над уровнем моря 198 м.

В архиве по умолчанию представлена погода в Торбеево за последнюю неделю. Архивные данные за месяц целиком и за предыдущие месяцы, начиная с января 2011 года, Вы можете получить, выбрав интересующий диапазон дат из раскрывающегося списка и нажав кнопку "Ввод!".


*Определитесь, кто Вы:
робот инопланетянин человек

Внимание! Время в таблицах - всемирное. Для получения местного времени необходимо прибавить поправку, которая равна 3 ч.

Смотрите также архив погоды в соседних городах и на ближайших метеорологических станциях:

Погода в Краснослободске (Мордовия, Россия) (52 км)
Погода в Темникове (Мордовия, Россия) (61 км)
Погода в Инсаре (Мордовия, Россия) (78 км)
Погода в Земетчино (Пензенская область, Россия) (78 км)
Погода в Пачелме (Пензенская область, Россия) (84 км)
Погода в Сасово (Рязанская область, Россия) (88 км)
Погода в Каменке (Пензенская область, Россия) (113 км)
Погода в Моршанске (Тамбовская область, Россия) (118 км)
Погода в Белинском (Пензенская область, Россия) (124 км)
Погода в Саранске (Мордовия, Россия) (131 км)

Пояснения к столбцам:

Ветер - указаны скорость ветра в м/с - средняя за 10 мин, порывы в срок и между сроками (в фигурных скобках) и направление, откуда дует ветер: С - северный, СВ - северо-восточный, В - восточный, ЮВ - юго-восточный, Ю - южный, ЮЗ - юго-западный, З - западный, СЗ - северо-западный.
Видимость - горизонтальная дальность видимости в метрах или километрах. При видимости от 1 до 10 км при отсутствии осадков обычно наблюдается дымка, при ухудшении видимости до 1 км и менее - туман. В сухую погоду видимость может ухудшаться дымом, пылью или мглою.
Явления - указаны атмосферные явления, наблюдавшиеся в срок или в последний час перед сроком; фигурными скобками обозначены явления, наблюдавшиеся между сроками (за 1-3 часа до срока); квадратными скобками обозначены град или гололедные отложения с указанием их диаметра в мм.
Облачность - указаны через наклонную черту общая и нижняя облачность в баллах и высота нижней границы облаков в метрах; квадратными скобками обозначены формы облаков: Ci - перистые, Cs - перисто-слоистые, Cc - перисто-кучевые, Ac - высококучевые, As - высокослоистые, Sc - слоисто-кучевые, Ns - слоисто-дождевые, Cu - кучевые, Cb - кучево-дождевые. Подробнее классификацию облаков см. в Атласе облаков (PDF).
T - Температура воздуха - температура, измеренная на высоте 2 м над землей.
Td - Температура точки росы - температура, при понижении до которой содержащийся в воздухе водяной пар достигнет насыщения.
f - Относительная влажность воздуха - влажноcть воздуха, измеренная на высоте 2 м над землей.
Te - Эффективная температура - температура, которую ощущает одетый по сезону человек в тени. Характеристика душности погоды. При расчете учитывается влияние влажности воздуха и скорости ветра на теплоощущения человека.
Tes - Эффективная температура на солнце - температура, которую ощущает человек, с поправкой на солнечный нагрев. Характеристика знойности погоды. Зависит от высоты солнца над горизонтом, облачности и скорости ветра. Ночью, в пасмурную погоду, а также при ветре 12 м/с и более поправка равна нулю.
P - Атмосферное давление - приведенное к уровню моря атмосферное давление.
Po - Атмосферное давление - измеренное на уровне метеостанции атмосферное давление.
Tmin - Минимальная температура - минимум температуры воздуха на высоте 2 м над землей.
Tmax - Максимальная температура - максимум температуры воздуха на высоте 2 м над землей.
R - Количество осадков - Количество выпавших осадков за период времени, мм. При наведении курсора мыши на число - период времени, за который выпало указанное количество осадков.
R24 - Количество осадков - Количество выпавших осадков за 24 часа, мм.
S - Снежный покров - Высота снежного покрова, см. При наведении курсора мыши на число - состояние снежного покрова и степень покрытия местности в баллах.